Carbondale, IL

12:46 AM CST on December 11, 2019 (GMT -0600)
Southern Illinois

Weather History for KMDH - October, 2019

Change the Weather History Date:

Tuesday, October 29, 2019

  Actual Average Record
Temperature  
Mean Temperature 49 °F -  
Max Temperature 54 °F 65 °F 85 °F (1950)
Min Temperature 44 °F 39 °F 16 °F (1952)
Degree Days  
Heating Degree Days 16    
Moisture  
Dew Point 45 °F    
Average Humidity 85    
Maximum Humidity 93    
Minimum Humidity 68    
Precipitation  
Precipitation 0.00 in - - ()
Sea Level Pressure  
Sea Level Pressure 30.16 in    
Wind  
Wind Speed 8 mph (NW)    
Max Wind Speed 12 mph    
Max Gust Speed 18 mph    
Visibility 8 miles    
Events      
Averages and records for this station are not official NWS values.
T = Trace of Precipitation, MM = Missing Value Source: NWS Daily Summary

Daily Weather History Graph

Daily Weather History Graph

Search for Another Location

Airport or City:

Astronomy

Oct. 29, 2019 Rise Set
Actual Time 7:19 AM CDT 6:01 PM CDT
Civil Twilight 6:51 AM CDT 6:28 PM CDT
Nautical Twilight 6:21 AM CDT 6:59 PM CDT
Astronomical Twilight 5:50 AM CDT 7:30 PM CDT
Moon 8:51 AM CDT (10/29) 7:27 PM CDT (10/29)
Length of Visible Light 11h 36m
Length of Day
10h 42m
Waxing Crescent, 3% of the Moon is Illuminated
Oct 29
Waxing Crescent
Nov 4
First Quarter
Nov 12
Full
Nov 19
Last Quarter
Nov 26
New

Hourly Weather History & Observations

Time (CDT) Temp. Windchill Dew Point Humidity Pressure Visibility Wind Dir Wind Speed Gust Speed Precip Events Conditions
12:52 AM 54.0 °F - 50.0 °F 86% 30.05 in 10.0 mi SSE 8.1 mph - N/A   Overcast
1:21 AM 53.1 °F - 50.0 °F 89% 30.04 in 10.0 mi South 8.1 mph - N/A   Scattered Clouds
1:52 AM 53.1 °F - 50.0 °F 89% 30.03 in 10.0 mi South 9.2 mph - N/A   Clear
2:52 AM 53.1 °F - 50.0 °F 89% 30.04 in 10.0 mi SSW 10.4 mph - N/A   Clear
3:52 AM 52.0 °F - 48.9 °F 89% 30.06 in 10.0 mi WSW 5.8 mph - N/A   Scattered Clouds
4:00 AM 52.0 °F - 50.0 °F 93% 30.06 in 10.0 mi WSW 4.6 mph - N/A   Mostly Cloudy
4:34 AM 53.1 °F - 50.0 °F 89% 30.05 in 10.0 mi SSW 6.9 mph - N/A   Overcast
4:52 AM 52.0 °F - 48.9 °F 89% 30.06 in 10.0 mi SW 5.8 mph - N/A   Mostly Cloudy
5:31 AM 53.1 °F - 50.0 °F 89% 30.08 in 10.0 mi SW 6.9 mph - N/A   Mostly Cloudy
5:52 AM 53.1 °F - 50.0 °F 89% 30.08 in 10.0 mi SSW 9.2 mph - N/A   Overcast
6:01 AM 54.0 °F - 50.0 °F 86% 30.08 in 10.0 mi SSW 6.9 mph - N/A   Overcast
6:52 AM 54.0 °F - 51.1 °F 90% 30.10 in 6.0 mi West 5.8 mph - N/A   Overcast
7:20 AM 52.0 °F - 50.0 °F 93% 30.12 in 4.0 mi NW 11.5 mph - N/A   Overcast
7:52 AM 48.0 °F - 46.0 °F 93% 30.15 in 4.0 mi NW 8.1 mph 18.4 mph N/A   Overcast
8:14 AM 46.9 °F - 44.1 °F 90% 30.18 in 5.0 mi NW 9.2 mph - N/A   Overcast
8:41 AM 46.9 °F - 44.1 °F 90% 30.19 in 4.0 mi NW 9.2 mph - N/A   Overcast
8:52 AM 46.9 °F - 44.1 °F 90% 30.20 in 7.0 mi NNW 6.9 mph - N/A   Overcast
9:52 AM 46.0 °F 41.4 °F 43.0 °F 89% 30.22 in 10.0 mi NW 9.2 mph - N/A   Overcast
10:33 AM 46.9 °F - 41.0 °F 80% 30.22 in 10.0 mi NW 9.2 mph - N/A   Overcast
10:52 AM 48.0 °F - 41.0 °F 77% 30.22 in 10.0 mi NNW 8.1 mph - N/A   Overcast
11:52 AM 48.0 °F - 41.0 °F 77% 30.24 in 10.0 mi NW 8.1 mph - N/A   Overcast
12:04 PM 48.9 °F - 41.0 °F 74% 30.23 in 10.0 mi NW 8.1 mph - N/A   Overcast
12:52 PM 50.0 °F - 41.0 °F 71% 30.22 in 10.0 mi North 8.1 mph - N/A   Overcast
1:52 PM 50.0 °F - 39.9 °F 68% 30.21 in 10.0 mi NNW 9.2 mph - N/A   Overcast
2:52 PM 50.0 °F - 41.0 °F 71% 30.20 in 10.0 mi North 10.4 mph - N/A   Overcast
3:52 PM 48.9 °F - 39.9 °F 71% 30.22 in 10.0 mi North 6.9 mph - N/A   Overcast
4:52 PM 48.0 °F - 39.9 °F 74% 30.19 in 10.0 mi NNE 5.8 mph - N/A   Overcast
5:52 PM 46.9 °F - 39.9 °F 77% 30.19 in 10.0 mi North 8.1 mph - N/A   Overcast
6:52 PM 46.0 °F 41.4 °F 39.9 °F 79% 30.19 in 7.0 mi North 9.2 mph - N/A   Overcast
7:19 PM 46.0 °F 41.9 °F 41.0 °F 83% 30.19 in 7.0 mi NNE 8.1 mph - N/A   Overcast
7:52 PM 45.0 °F 40.6 °F 42.1 °F 90% 30.19 in 6.0 mi NNE 8.1 mph - N/A   Overcast
8:31 PM 45.0 °F 41.8 °F 42.1 °F 90% 30.19 in 7.0 mi NE 5.8 mph - N/A   Overcast
8:52 PM 45.0 °F 43.5 °F 42.1 °F 90% 30.19 in 4.0 mi NNE 3.5 mph - N/A   Overcast
9:52 PM 46.0 °F 43.9 °F 42.1 °F 86% 30.21 in 5.0 mi North 4.6 mph - N/A   Overcast
10:52 PM 45.0 °F 41.2 °F 42.1 °F 90% 30.21 in 4.0 mi North 6.9 mph - N/A   Overcast
11:13 PM 44.1 °F 41.5 °F 42.1 °F 93% 30.19 in 2.5 mi North 4.6 mph - N/A   Overcast
11:31 PM 44.1 °F 40.8 °F 42.1 °F 93% 30.19 in 3.0 mi North 5.8 mph - N/A   Overcast
11:47 PM 44.6 °F 41.4 °F 42.8 °F 93% 30.19 in 2.5 mi NNE 5.8 mph - N/A   Overcast
11:52 PM 44.1 °F 40.8 °F 42.1 °F 93% 30.20 in 2.5 mi NNE 5.8 mph - N/A   Overcast